CW7091 Weather Reports


Display with metric or nautical units.
time (UTC)temp
F
wind
direction
speed
MPH
gust
MPH
rain 1hr
in
rain 24hr
in
rain mn
in
humidity
%
barometer
mb
20260506231255 57 176 0.0 1.0 0.00 0.00 0.00 86 1020.3
20260506230752 57 162 1.0 1.0 0.00 0.00 0.00 86 1020.5
20260506230249 57 174 0.0 0.0 0.00 0.00 0.00 86 1020.4
20260506225745 57 151 0.0 2.0 0.00 0.00 0.00 86 1020.3
20260506225242 57 157 4.0 6.0 0.00 0.00 0.00 86 1020.4
20260506224738 57 146 1.0 1.0 0.00 0.00 0.00 90 1020.4
20260506224236 57 142 3.0 3.0 0.00 0.00 0.00 89 1020.6
20260506223732 57 158 1.0 2.0 0.00 0.00 0.00 89 1020.4
20260506223228 57 155 0.0 0.0 0.00 0.00 0.00 90 1020.6
20260506222725 56 155 1.0 1.0 0.00 0.00 0.00 90 1020.6
20260506222220 56 159 0.0 1.0 0.00 0.00 0.00 90 1020.6
20260506221719 57 129 2.0 2.0 0.00 0.00 0.00 90 1020.4
20260506221217 56 169 0.0 0.0 0.00 0.00 0.00 89 1020.6
20260506220714 57 158 2.0 2.0 0.00 0.00 0.00 90 1020.9
20260506220208 57 158 2.0 2.0 0.00 0.00 0.00 90 1020.6
20260506215705 57 156 2.0 2.0 0.00 0.00 0.00 89 1020.6
20260506215201 57 312 0.0 0.0 0.00 0.00 0.00 90 1020.7
20260506214658 57 319 0.0 1.0 0.00 0.00 0.00 89 1020.5
20260506214155 57 313 1.0 1.0 0.00 0.00 0.00 89 1020.5
20260506213653 57 284 0.0 0.0 0.00 0.00 0.00 88 1020.4
20260506213150 58 238 0.0 0.0 0.00 0.00 0.00 87 1020.4
20260506212647 58 309 0.0 0.0 0.00 0.00 0.00 87 1020.7
20260506212142 59 234 0.0 1.0 0.00 0.00 0.00 87 1020.6
20260506211638 58 253 0.0 0.0 0.00 0.00 0.00 87 1020.5
20260506211135 59 301 0.0 0.0 0.00 0.00 0.00 87 1020.3
20260506210632 59 290 1.0 1.0 0.00 0.00 0.00 87 1020.4
20260506210128 59 327 0.0 0.0 0.00 0.00 0.00 86 1020.5
20260506205625 60 289 0.0 0.0 0.00 0.00 0.00 86 1020.5
20260506205120 59 307 0.0 0.0 0.00 0.00 0.00 87 1020.4
20260506204618 59 314 0.0 0.0 0.00 0.00 0.00 86 1020.5
20260506204115 60 299 0.0 0.0 0.00 0.00 0.00 86 1020.3
20260506203613 60 291 0.0 0.0 0.00 0.00 0.00 86 1020.3
20260506203109 60 301 1.0 2.0 0.00 0.00 0.00 86 1020.2
20260506202607 60 291 1.0 1.0 0.00 0.00 0.00 84 1020.0
20260506202104 60 267 1.0 1.0 0.00 0.00 0.00 85 1020.2
20260506201601 60 283 1.0 1.0 0.00 0.00 0.00 83 1020.4
20260506201057 60 148 0.0 0.0 0.00 0.00 0.00 85 1020.3
20260506200554 60 176 1.0 1.0 0.00 0.00 0.00 84 1020.3
20260506200051 59 169 0.0 0.0 0.00 0.00 0.00 87 1020.2
20260506195547 59 159 1.0 1.0 0.00 0.00 0.00 86 1020.1
20260506195044 59 155 0.0 0.0 0.00 0.00 0.00 87 1020.2
20260506194542 59 155 1.0 2.0 0.00 0.00 0.00 85 1020.2
20260506194037 60 307 0.0 0.0 0.00 0.00 0.00 87 1020.1
20260506193535 60 302 1.0 2.0 0.00 0.00 0.00 86 1020.0
20260506193032 59 310 1.0 1.0 0.00 0.00 0.00 88 1020.0
20260506192529 59 287 0.0 0.0 0.00 0.00 0.00 88 1020.2
20260506192025 59 310 1.0 1.0 0.00 0.00 0.00 88 1020.1
20260506191522 59 312 0.0 0.0 0.00 0.00 0.00 88 1020.0
20260506191018 58 312 0.0 0.0 0.00 0.00 0.00 89 1019.9
20260506190515 59 304 1.0 1.0 0.00 0.00 0.00 88 1019.9
20260506190012 59 302 1.0 1.0 0.00 0.00 0.00 88 1020.2
20260506185509 59 300 0.0 0.0 0.00 0.00 0.00 89 1020.1
20260506185005 58 325 1.0 2.0 0.00 0.00 0.00 89 1020.1
20260506184503 58 140 2.0 3.0 0.00 0.00 0.00 88 1019.8
20260506183954 58 285 0.0 0.0 0.00 0.00 0.00 89 1020.0
20260506183449 58 305 2.0 2.0 0.00 0.00 0.00 89 1020.1
20260506182947 59 307 1.0 2.0 0.00 0.00 0.00 89 1020.0
20260506182444 59 122 0.0 0.0 0.00 0.00 0.00 88 1019.7
20260506181941 59 287 0.0 0.0 0.00 0.00 0.00 89 1019.8
20260506181439 58 308 1.0 1.0 0.00 0.00 0.00 89 1019.5
20260506180936 58 155 3.0 3.0 0.00 0.00 0.00 88 1019.5
20260506180432 59 288 0.0 1.0 0.00 0.00 0.00 88 1019.7
20260506175929 59 270 0.0 1.0 0.00 0.00 0.00 88 1019.6
20260506175426 59 322 0.0 0.0 0.00 0.00 0.00 88 1019.9
20260506174922 59 313 1.0 1.0 0.00 0.00 0.00 88 1019.8
20260506174420 59 299 1.0 1.0 0.00 0.00 0.00 88 1019.7
20260506173912 59 324 1.0 1.0 0.00 0.00 0.00 89 1020.1
20260506173408 58 313 0.0 0.0 0.00 0.00 0.00 90 1019.8
20260506172905 58 307 1.0 1.0 0.00 0.00 0.00 90 1019.9
20260506172402 58 291 0.0 1.0 0.00 0.00 0.00 89 1019.9
20260506171859 59 309 0.0 0.0 0.00 0.00 0.00 89 1019.9
20260506171356 59 293 1.0 1.0 0.00 0.00 0.00 89 1019.7
20260506170854 59 291 0.0 0.0 0.00 0.00 0.00 91 1019.8
20260506170350 58 292 0.0 0.0 0.00 0.00 0.00 90 1019.7
20260506165849 58 291 0.0 0.0 0.00 0.00 0.00 90 1019.5
20260506165347 58 298 0.0 1.0 0.00 0.00 0.00 91 1019.6
20260506164843 58 321 0.0 0.0 0.00 0.00 0.00 92 1019.2
20260506164339 58 305 0.0 1.0 0.00 0.00 0.00 91 1019.5
20260506163837 58 305 0.0 0.0 0.00 0.00 0.00 91 1019.4
20260506163331 58 300 1.0 2.0 0.00 0.00 0.00 91 1019.2
20260506162827 58 287 0.0 1.0 0.00 0.00 0.00 92 1019.4
20260506162326 57 265 0.0 0.0 0.00 0.00 0.00 94 1019.1
20260506161823 57 174 0.0 0.0 0.00 0.00 0.00 95 1019.2
20260506161320 57 174 0.0 0.0 0.00 0.00 0.00 96 1019.6
20260506160818 56 168 1.0 1.0 0.00 0.00 0.00 97 1019.3
20260506160314 56 173 1.0 1.0 0.00 0.00 0.00 99 1019.0
20260506155813 56 326 1.0 1.0 0.00 0.00 0.00 99 1019.1
20260506155309 56 326 0.0 0.0 0.00 0.00 0.00 99 1019.2
20260506153427 55 176 0.0 0.0 0.00 0.00 0.00 99 1019.4
20260506152925 55 175 0.0 0.0 0.00 0.00 0.00 99 1019.5
20260506152421 55 175 0.0 0.0 0.00 0.00 0.00 99 1019.4
20260506151920 55 175 0.0 0.0 0.00 0.00 0.00 99 1019.3
20260506151416 55 176 0.0 0.0 0.00 0.00 0.00 99 1019.3
20260506150914 54 233 0.0 0.0 0.00 0.00 0.00 99 1019.2
20260506150410 54 233 0.0 0.0 0.00 0.00 0.00 99 1019.3
20260506145907 54 234 0.0 0.0 0.00 0.00 0.00 99 1019.3
20260506145403 54 234 0.0 0.0 0.00 0.00 0.00 99 1019.1
20260506144901 54 234 0.0 0.0 0.00 0.00 0.00 99 1019.5
20260506144357 54 234 0.0 0.0 0.00 0.00 0.00 99 1019.3
20260506143856 54 234 0.0 0.0 0.00 0.00 0.00 99 1019.3
20260506143352 53 234 0.0 0.0 0.00 0.00 0.00 99 1019.3
20260506142851 53 234 0.0 0.0 0.00 0.00 0.00 99 1019.2
20260506142348 53 234 0.0 0.0 0.00 0.00 0.00 99 1019.1
20260506141846 53 234 0.0 0.0 0.00 0.00 0.00 99 1019.0
20260506141344 53 234 0.0 0.0 0.00 0.00 0.00 99 1019.0
20260506140842 53 234 0.0 0.0 0.00 0.00 0.00 99 1019.2
20260506140339 53 234 0.0 0.0 0.00 0.00 0.00 99 1019.3
20260506135836 53 234 0.0 0.0 0.00 0.00 0.00 99 1019.1
20260506135332 53 234 0.0 0.0 0.00 0.00 0.00 99 1019.2
20260506134828 53 234 0.0 0.0 0.00 0.00 0.00 99 1019.3
20260506134325 52 234 0.0 0.0 0.00 0.00 0.00 99 1019.0
20260506133822 52 234 0.0 0.0 0.00 0.00 0.00 99 1019.0
20260506133319 52 238 0.0 0.0 0.00 0.00 0.00 99 1019.1
20260506132816 52 237 0.0 0.0 0.00 0.00 0.00 99 1018.7
20260506132313 52 158 0.0 1.0 0.00 0.00 0.00 99 1018.8
20260506131811 52 157 0.0 1.0 0.00 0.00 0.00 99 1018.3
20260506131307 52 158 0.0 0.0 0.00 0.00 0.00 99 1018.6
20260506130804 52 158 0.0 0.0 0.00 0.00 0.00 99 1018.6
20260506130300 52 158 0.0 0.0 0.00 0.00 0.00 99 1018.6
20260506125759 52 158 0.0 0.0 0.00 0.00 0.00 99 1018.7
20260506125256 52 158 0.0 0.0 0.00 0.00 0.00 99 1018.6
20260506124754 51 158 0.0 0.0 0.00 0.00 0.00 99 1018.4
20260506124252 51 158 0.0 0.0 0.00 0.00 0.00 99 1018.2
20260506123749 51 158 0.0 0.0 0.00 0.00 0.00 99 1018.3
20260506123248 51 158 0.0 0.0 0.00 0.00 0.00 99 1018.3
20260506122744 51 158 0.0 0.0 0.00 0.00 0.00 99 1018.2
20260506122241 51 158 0.0 0.0 0.00 0.00 0.00 99 1018.3
20260506121739 51 158 0.0 0.0 0.00 0.00 0.00 99 1018.5
20260506121236 51 158 0.0 0.0 0.00 0.00 0.00 99 1018.4
20260506120733 51 158 0.0 0.0 0.00 0.00 0.00 99 1018.5
20260506120231 51 158 0.0 0.0 0.00 0.00 0.00 99 1018.4
20260506115728 51 158 0.0 0.0 0.00 0.00 0.00 99 1018.4
20260506115227 51 158 0.0 0.0 0.00 0.00 0.00 99 1018.1
20260506114724 51 158 0.0 0.0 0.00 0.00 0.00 99 1018.0
20260506114221 51 158 0.0 0.0 0.00 0.00 0.00 99 1018.1
20260506113720 51 158 0.0 0.0 0.00 0.00 0.00 99 1018.0
20260506113217 51 158 0.0 0.0 0.00 0.00 0.00 99 1018.1
20260506112713 51 158 0.0 0.0 0.00 0.00 0.00 99 1018.3
20260506112211 51 158 0.0 0.0 0.00 0.00 0.00 99 1018.0
20260506111708 51 158 0.0 0.0 0.00 0.00 0.00 99 1018.0
20260506111206 51 158 0.0 0.0 0.00 0.00 0.00 99 1017.8
20260506110703 51 158 0.0 0.0 0.00 0.00 0.00 99 1018.0
20260506110200 51 158 0.0 0.0 0.00 0.00 0.00 99 1018.0
20260506105657 51 158 0.0 0.0 0.00 0.00 0.00 99 1018.0
20260506105154 51 158 0.0 0.0 0.00 0.00 0.00 99 1017.9
20260506104652 51 158 0.0 0.0 0.00 0.00 0.00 99 1017.9
20260506104149 50 158 0.0 0.0 0.00 0.00 0.00 99 1018.0
20260506103646 50 158 0.0 0.0 0.00 0.00 0.00 99 1017.8
20260506103143 50 158 0.0 0.0 0.00 0.00 0.00 99 1017.6
20260506102641 50 158 0.0 0.0 0.00 0.00 0.00 99 1017.8
20260506102138 50 158 0.0 0.0 0.00 0.00 0.00 99 1017.8
20260506101635 50 158 0.0 0.0 0.00 0.00 0.00 99 1017.4
20260506101132 50 158 0.0 0.0 0.00 0.00 0.00 99 1017.7
20260506100631 50 158 0.0 0.0 0.00 0.00 0.00 99 1017.6
20260506100128 50 158 0.0 0.0 0.00 0.00 0.00 99 1017.5
20260506095627 50 158 0.0 0.0 0.00 0.00 0.00 99 1017.5
20260506095123 50 158 0.0 0.0 0.00 0.00 0.00 99 1017.3
20260506094620 50 158 0.0 0.0 0.00 0.00 0.00 99 1017.5
20260506094118 49 158 0.0 0.0 0.00 0.00 0.00 99 1017.4
20260506093616 49 158 0.0 0.0 0.00 0.00 0.00 99 1017.4
20260506093113 49 158 0.0 0.0 0.00 0.00 0.00 99 1017.2
20260506092611 49 158 0.0 0.0 0.00 0.00 0.00 99 1017.1
20260506092108 48 158 0.0 0.0 0.00 0.00 0.00 99 1017.3
20260506091606 48 158 0.0 0.0 0.00 0.00 0.00 99 1017.0
20260506091103 47 158 0.0 0.0 0.00 0.00 0.00 99 1017.0
20260506090601 47 158 0.0 0.0 0.00 0.00 0.00 99 1017.1
20260506090057 47 158 0.0 0.0 0.00 0.00 0.00 99 1016.8
20260506085554 47 158 0.0 0.0 0.00 0.00 0.00 99 1017.1
20260506085050 48 158 0.0 0.0 0.00 0.00 0.00 99 1016.9
20260506084547 48 158 0.0 0.0 0.00 0.00 0.00 99 1016.9
20260506084043 48 158 0.0 0.0 0.00 0.00 0.00 99 1016.9
20260506083541 48 158 0.0 0.0 0.00 0.00 0.00 99 1016.7
20260506083038 48 158 0.0 0.0 0.00 0.00 0.00 99 1016.9
20260506082534 48 158 0.0 0.0 0.00 0.00 0.00 99 1016.8
20260506082030 48 158 0.0 0.0 0.00 0.00 0.00 99 1016.7
20260506081529 49 158 0.0 0.0 0.00 0.00 0.00 99 1016.7
20260506081026 49 158 0.0 0.0 0.00 0.00 0.00 99 1016.6
20260506080523 49 158 0.0 0.0 0.00 0.00 0.00 99 1016.8
20260506073507 50 158 0.0 0.0 0.00 0.00 0.00 99 1016.6
20260506073004 50 158 0.0 0.0 0.00 0.00 0.00 99 1016.7
20260506072501 50 158 0.0 0.0 0.00 0.00 0.00 99 1016.6
20260506071959 50 158 0.0 1.0 0.00 0.00 0.00 99 1016.6
20260506071456 51 157 1.0 1.0 0.00 0.00 0.00 99 1016.6
20260506070953 51 165 1.0 1.0 0.00 0.00 0.00 99 1016.6
20260506070450 50 174 1.0 1.0 0.00 0.00 0.00 99 1016.5
20260506062428 51 174 0.0 0.0 0.00 0.00 0.00 99 1016.1
20260506061923 51 174 0.0 0.0 0.00 0.00 0.00 99 1016.3
20260506061420 51 174 0.0 0.0 0.00 0.00 0.00 99 1016.1
20260506060918 51 174 0.0 0.0 0.00 0.00 0.00 99 1016.0
20260506060416 51 174 0.0 0.0 0.00 0.00 0.00 99 1016.0
20260506051348 53 174 0.0 1.0 0.00 0.00 0.00 99 1015.6
20260506050845 53 174 0.0 0.0 0.00 0.00 0.00 99 1015.3
20260506050343 53 174 0.0 0.0 0.00 0.00 0.00 99 1015.5
20260506044833 53 174 0.0 0.0 0.00 0.00 0.00 99 1015.5
20260506044331 54 174 0.0 0.0 0.00 0.00 0.00 99 1015.2
20260506043828 53 174 0.0 0.0 0.00 0.00 0.00 99 1015.2
20260506043325 54 174 0.0 0.0 0.00 0.00 0.00 99 1015.4
20260506042823 54 174 0.0 0.0 0.00 0.00 0.00 99 1015.4
20260506042322 55 174 0.0 0.0 0.00 0.00 0.00 99 1015.1
20260506041821 55 174 0.0 0.0 0.00 0.00 0.00 99 1015.1
20260506041317 55 174 0.0 0.0 0.00 0.00 0.00 99 1015.2
20260506040814 55 174 0.0 0.0 0.00 0.00 0.00 99 1015.1
20260506040312 56 174 0.0 0.0 0.00 0.00 0.00 98 1015.1
20260506035808 56 174 0.0 0.0 0.00 0.00 0.00 97 1014.9
20260506035306 57 174 0.0 0.0 0.00 0.00 0.00 97 1015.1
20260506034802 57 174 0.0 1.0 0.00 0.00 0.00 97 1014.9
20260506034259 57 174 0.0 0.0 0.00 0.00 0.00 95 1015.0
20260506033756 57 174 0.0 0.0 0.00 0.00 0.00 95 1014.9
20260506033253 57 174 0.0 0.0 0.00 0.00 0.00 93 1014.9
20260506032750 58 174 0.0 0.0 0.00 0.00 0.00 91 1014.7
20260506032247 59 174 0.0 0.0 0.00 0.00 0.00 90 1014.7
20260506031744 59 174 0.0 0.0 0.00 0.00 0.00 90 1014.8
20260506031241 60 174 0.0 1.0 0.00 0.00 0.00 89 1015.0
20260506030739 60 174 0.0 0.0 0.00 0.00 0.00 86 1014.7
20260506030236 61 174 0.0 0.0 0.00 0.00 0.00 84 1014.5
20260506025733 62 174 0.0 0.0 0.00 0.00 0.00 84 1014.7
20260506025230 62 174 0.0 0.0 0.00 0.00 0.00 83 1014.5
20260506024726 62 174 1.0 1.0 0.00 0.00 0.00 83 1014.4
20260506024223 62 174 0.0 0.0 0.00 0.00 0.00 82 1014.5
20260506023719 63 174 0.0 0.0 0.00 0.00 0.00 82 1014.3
20260506023217 63 174 0.0 0.0 0.00 0.00 0.00 82 1014.4
20260506022713 63 173 0.0 0.0 0.00 0.00 0.00 81 1014.4
20260506022211 63 173 0.0 0.0 0.00 0.00 0.00 79 1014.6
20260506021709 64 173 0.0 0.0 0.00 0.00 0.00 79 1014.4
20260506021206 64 173 0.0 0.0 0.00 0.00 0.00 78 1014.3
20260506020703 64 173 0.0 0.0 0.00 0.00 0.00 78 1014.4
20260506020201 64 173 0.0 0.0 0.00 0.00 0.00 77 1014.3
20260506015658 64 173 0.0 1.0 0.00 0.00 0.00 76 1014.4
20260506015155 65 174 0.0 1.0 0.00 0.00 0.00 75 1014.4
20260506014652 65 245 0.0 0.0 0.00 0.00 0.00 75 1014.5
20260506014148 66 244 0.0 1.0 0.00 0.00 0.00 75 1014.5
20260506013646 66 245 0.0 0.0 0.00 0.00 0.00 75 1014.3
20260506013143 67 285 0.0 0.0 0.00 0.00 0.00 74 1014.4
20260506012638 67 286 0.0 0.0 0.00 0.00 0.00 72 1014.5
20260506012135 68 171 0.0 0.0 0.00 0.00 0.00 72 1014.5
20260506011628 69 165 0.0 0.0 0.00 0.00 0.00 71 1014.5
20260506011124 67 162 0.0 0.0 0.00 0.00 0.00 73 1014.4
20260506010623 68 170 0.0 1.0 0.00 0.00 0.00 71 1014.4
20260506010119 68 180 1.0 1.0 0.00 0.00 0.00 71 1014.4
20260506005616 69 180 1.0 2.0 0.00 0.00 0.00 70 1014.6
20260506005112 69 223 0.0 0.0 0.00 0.00 0.00 69 1014.6
20260506004609 68 162 0.0 0.0 0.00 0.00 0.00 70 1014.7
20260506004106 69 281 0.0 0.0 0.00 0.00 0.00 71 1014.7
20260506003603 67 293 0.0 0.0 0.00 0.00 0.00 72 1014.6
20260506003059 68 37 2.0 2.0 0.00 0.00 0.00 72 1014.7
20260506002554 69 177 0.0 0.0 0.00 0.00 0.00 70 1014.7
20260506002051 66 178 0.0 0.0 0.00 0.00 0.00 74 1014.7
20260506001547 65 178 0.0 1.0 0.00 0.00 0.00 76 1014.8
20260506001044 67 243 0.0 0.0 0.00 0.00 0.00 75 1014.7
20260506000542 65 329 0.0 1.0 0.00 0.00 0.00 75 1014.9
20260506000039 65 312 0.0 0.0 0.00 0.00 0.00 76 1014.9
20260505235537 65 308 1.0 1.0 0.00 0.00 0.00 76 1015.1
20260505235034 66 336 0.0 1.0 0.00 0.00 0.00 76 1015.3
20260505234531 64 291 0.0 1.0 0.00 0.00 0.00 77 1015.3
20260505234027 65 57 1.0 1.0 0.00 0.00 0.00 76 1015.1
20260505233525 64 50 0.0 0.0 0.00 0.00 0.00 77 1015.2
20260505233022 64 299 0.0 1.0 0.00 0.00 0.00 77 1015.2
20260505232520 64 304 0.0 0.0 0.00 0.00 0.00 78 1015.2
20260505232017 64 23 1.0 1.0 0.00 0.00 0.00 78 1015.2